Time,TemperatureF,DewpointF,PressureIn,WindDirection,WindDirectionDegrees,WindSpeedMPH,WindSpeedGustMPH,Humidity,HourlyPrecipIn,Conditions,Clouds,dailyrainin,SoftwareType,DateUTC
2013-10-22 00:12:00,65.0,31.0,29.36,NNW,334,2.0,-999.0,28,0.00,,,0.00,,2013-10-22 07:12:00,
2013-10-22 00:22:00,65.0,31.0,29.36,NNW,334,2.0,-999.0,28,0.00,,,0.00,,2013-10-22 07:22:00,
2013-10-22 00:32:00,65.0,31.0,29.36,NNW,334,2.0,-999.0,28,0.00,,,0.00,,2013-10-22 07:32:00,
2013-10-22 00:42:00,65.0,31.0,29.36,NNW,334,2.0,-999.0,28,0.00,,,0.00,,2013-10-22 07:42:00,
2013-10-22 01:12:00,63.0,31.0,29.37,East,101,2.0,-999.0,30,-99.99,,,0.00,,2013-10-22 08:12:00,
2013-10-22 01:22:00,63.0,31.0,29.37,East,101,2.0,-999.0,30,-99.99,,,0.00,,2013-10-22 08:22:00,
2013-10-22 01:31:00,63.0,31.0,29.37,East,101,2.0,-999.0,30,-99.99,,,0.00,,2013-10-22 08:31:00,
2013-10-22 01:41:00,63.0,31.0,29.37,East,101,2.0,-999.0,30,-99.99,,,0.00,,2013-10-22 08:41:00,
2013-10-22 02:21:00,62.0,30.0,29.37,WSW,237,3.0,-999.0,30,-99.99,,,0.00,,2013-10-22 09:21:00,
2013-10-22 02:33:00,62.0,30.0,29.37,WSW,237,3.0,-999.0,30,-99.99,,,0.00,,2013-10-22 09:33:00,
2013-10-22 02:43:00,62.0,30.0,29.37,WSW,237,3.0,-999.0,30,-99.99,,,0.00,,2013-10-22 09:43:00,
2013-10-22 03:13:00,59.0,34.0,29.36,SE,130,10.0,-999.0,39,0.00,,,0.00,,2013-10-22 10:13:00,
2013-10-22 03:23:00,59.0,34.0,29.36,SE,130,10.0,-999.0,39,0.00,,,0.00,,2013-10-22 10:23:00,
2013-10-22 03:33:00,59.0,34.0,29.36,SE,130,10.0,-999.0,39,0.00,,,0.00,,2013-10-22 10:33:00,
2013-10-22 03:43:00,59.0,34.0,29.36,SE,130,10.0,-999.0,39,0.00,,,0.00,,2013-10-22 10:43:00,
2013-10-22 04:12:00,59.0,30.0,29.36,ESE,114,7.0,-999.0,32,0.00,,,0.00,,2013-10-22 11:12:00,
2013-10-22 04:22:00,59.0,30.0,29.36,ESE,114,7.0,-999.0,32,0.00,,,0.00,,2013-10-22 11:22:00,
2013-10-22 04:33:00,59.0,30.0,29.36,ESE,114,7.0,-999.0,32,0.00,,,0.00,,2013-10-22 11:33:00,
2013-10-22 04:42:00,59.0,30.0,29.36,ESE,114,7.0,-999.0,32,0.00,,,0.00,,2013-10-22 11:42:00,
2013-10-22 06:21:00,59.0,30.0,29.37,ESE,116,6.0,-999.0,34,-99.99,,,0.00,,2013-10-22 13:21:00,
2013-10-22 06:32:00,59.0,30.0,29.37,ESE,116,6.0,-999.0,34,-99.99,,,0.00,,2013-10-22 13:32:00,
2013-10-22 06:42:00,59.0,30.0,29.37,ESE,116,6.0,-999.0,34,-99.99,,,0.00,,2013-10-22 13:42:00,
2013-10-22 07:21:00,58.0,30.0,29.37,SE,141,5.0,-999.0,34,0.00,,,-99.99,,2013-10-22 14:21:00,
2013-10-22 07:32:00,58.0,30.0,29.37,SE,141,5.0,-999.0,34,0.00,,,-99.99,,2013-10-22 14:32:00,
2013-10-22 07:42:00,58.0,30.0,29.37,SE,141,5.0,-999.0,34,0.00,,,-99.99,,2013-10-22 14:42:00,
2013-10-22 08:22:00,57.0,31.0,29.38,SE,125,6.0,-999.0,36,0.00,,,-99.99,,2013-10-22 15:22:00,
2013-10-22 08:33:00,57.0,31.0,29.38,SE,125,6.0,-999.0,36,0.00,,,-99.99,,2013-10-22 15:33:00,
2013-10-22 08:43:00,57.0,31.0,29.38,SE,125,6.0,-999.0,36,0.00,,,-99.99,,2013-10-22 15:43:00,
2013-10-22 09:43:00,60.0,31.0,29.40,SE,136,4.0,-999.0,33,-99.99,,,-99.99,,2013-10-22 16:43:00,
2013-10-22 10:43:00,71.0,25.0,29.39,ENE,59,1.0,-999.0,18,-99.99,,,-99.99,,2013-10-22 17:43:00,
2013-10-22 11:22:00,74.0,30.0,29.38,SW,220,5.0,-999.0,20,-99.99,,,-99.99,,2013-10-22 18:22:00,
2013-10-22 11:32:00,74.0,30.0,29.38,SW,220,5.0,-999.0,20,-99.99,,,-99.99,,2013-10-22 18:32:00,
2013-10-22 11:42:00,74.0,30.0,29.38,SW,220,5.0,-999.0,20,-99.99,,,-99.99,,2013-10-22 18:42:00,
2013-10-22 12:22:00,77.0,37.0,29.37,SW,230,3.0,-999.0,23,0.00,,,0.00,,2013-10-22 19:22:00,
2013-10-22 12:32:00,77.0,37.0,29.37,SW,230,3.0,-999.0,23,0.00,,,0.00,,2013-10-22 19:32:00,
2013-10-22 12:42:00,77.0,37.0,29.37,SW,230,3.0,-999.0,23,0.00,,,0.00,,2013-10-22 19:42:00,
2013-10-22 13:22:00,81.0,39.0,29.35,West,267,4.0,-999.0,23,0.00,,,-99.99,,2013-10-22 20:22:00,
2013-10-22 13:32:00,81.0,39.0,29.35,West,267,4.0,-999.0,23,0.00,,,-99.99,,2013-10-22 20:32:00,
2013-10-22 13:42:00,81.0,39.0,29.35,West,267,4.0,-999.0,23,0.00,,,-99.99,,2013-10-22 20:42:00,
2013-10-22 14:22:00,83.0,39.0,29.32,West,270,4.0,-999.0,21,0.00,,,0.00,,2013-10-22 21:22:00,
2013-10-22 14:34:00,83.0,39.0,29.32,West,270,4.0,-999.0,21,0.00,,,0.00,,2013-10-22 21:34:00,
2013-10-22 14:44:00,83.0,39.0,29.32,West,270,4.0,-999.0,21,0.00,,,0.00,,2013-10-22 21:44:00,
2013-10-22 15:14:00,85.0,35.0,29.30,SW,226,6.0,-999.0,17,0.00,,,0.00,,2013-10-22 22:14:00,
2013-10-22 15:24:00,85.0,35.0,29.30,SW,226,6.0,-999.0,17,0.00,,,0.00,,2013-10-22 22:24:00,
2013-10-22 15:33:00,85.0,35.0,29.30,SW,226,6.0,-999.0,17,0.00,,,0.00,,2013-10-22 22:33:00,
2013-10-22 15:43:00,85.0,35.0,29.30,SW,226,6.0,-999.0,17,0.00,,,0.00,,2013-10-22 22:43:00,
2013-10-22 16:23:00,84.0,39.0,29.29,SW,226,3.0,-999.0,20,0.00,,,-99.99,,2013-10-22 23:23:00,
2013-10-22 16:34:00,84.0,39.0,29.29,SW,226,3.0,-999.0,20,0.00,,,-99.99,,2013-10-22 23:34:00,
2013-10-22 16:43:00,84.0,39.0,29.29,SW,226,3.0,-999.0,20,0.00,,,-99.99,,2013-10-22 23:43:00,
2013-10-22 17:22:00,84.0,37.0,29.28,SW,214,4.0,-999.0,19,0.00,,,-99.99,,2013-10-23 00:22:00,
2013-10-22 17:32:00,84.0,37.0,29.28,SW,214,4.0,-999.0,19,0.00,,,-99.99,,2013-10-23 00:32:00,
2013-10-22 17:42:00,84.0,37.0,29.28,SW,214,4.0,-999.0,19,0.00,,,-99.99,,2013-10-23 00:42:00,
2013-10-22 18:23:00,79.0,37.0,29.27,South,176,3.0,-999.0,22,0.00,,,0.00,,2013-10-23 01:23:00,
2013-10-22 18:32:00,79.0,37.0,29.27,South,176,3.0,-999.0,22,0.00,,,0.00,,2013-10-23 01:32:00,
2013-10-22 18:42:00,79.0,37.0,29.27,South,176,3.0,-999.0,22,0.00,,,0.00,,2013-10-23 01:42:00,
2013-10-22 19:11:00,76.0,37.0,29.28,ENE,60,8.0,-999.0,24,0.00,,,0.00,,2013-10-23 02:11:00,
2013-10-22 19:22:00,76.0,37.0,29.28,ENE,60,8.0,-999.0,24,0.00,,,0.00,,2013-10-23 02:22:00,
2013-10-22 19:32:00,76.0,37.0,29.28,ENE,60,8.0,-999.0,24,0.00,,,0.00,,2013-10-23 02:32:00,
2013-10-22 19:42:00,76.0,37.0,29.28,ENE,60,8.0,-999.0,24,0.00,,,0.00,,2013-10-23 02:42:00,
2013-10-22 20:11:00,72.0,36.0,29.28,SE,145,7.0,-999.0,26,0.00,,,0.00,,2013-10-23 03:11:00,
2013-10-22 20:22:00,72.0,36.0,29.28,SE,145,7.0,-999.0,26,0.00,,,0.00,,2013-10-23 03:22:00,
2013-10-22 20:34:00,72.0,36.0,29.28,SE,145,7.0,-999.0,26,0.00,,,0.00,,2013-10-23 03:34:00,
2013-10-22 20:44:00,72.0,36.0,29.28,SE,145,7.0,-999.0,26,0.00,,,0.00,,2013-10-23 03:44:00,
2013-10-22 21:14:00,69.0,37.0,29.29,ESE,112,4.0,-999.0,31,0.00,,,0.00,,2013-10-23 04:14:00,
2013-10-22 21:24:00,69.0,37.0,29.29,ESE,112,4.0,-999.0,31,0.00,,,0.00,,2013-10-23 04:24:00,
2013-10-22 21:34:00,69.0,37.0,29.29,ESE,112,4.0,-999.0,31,0.00,,,0.00,,2013-10-23 04:34:00,
2013-10-22 21:44:00,69.0,37.0,29.29,ESE,112,4.0,-999.0,31,0.00,,,0.00,,2013-10-23 04:44:00,
2013-10-22 22:13:00,68.0,36.0,29.31,ESE,111,5.0,-999.0,30,0.00,,,0.00,,2013-10-23 05:13:00,
2013-10-22 22:22:00,68.0,36.0,29.31,ESE,111,5.0,-999.0,30,0.00,,,0.00,,2013-10-23 05:22:00,
2013-10-22 22:34:00,68.0,36.0,29.31,ESE,111,5.0,-999.0,30,0.00,,,0.00,,2013-10-23 05:34:00,
2013-10-22 22:43:00,68.0,36.0,29.31,ESE,111,5.0,-999.0,30,0.00,,,0.00,,2013-10-23 05:43:00,
2013-10-22 23:12:00,66.0,34.0,29.33,ESE,106,6.0,-999.0,30,0.00,,,0.00,,2013-10-23 06:12:00,
2013-10-22 23:22:00,66.0,34.0,29.33,ESE,106,6.0,-999.0,30,0.00,,,0.00,,2013-10-23 06:22:00,
2013-10-22 23:32:00,66.0,34.0,29.33,ESE,106,6.0,-999.0,30,0.00,,,0.00,,2013-10-23 06:32:00,
2013-10-22 23:42:00,66.0,34.0,29.33,ESE,106,6.0,-999.0,30,0.00,,,0.00,,2013-10-23 06:42:00,